Home   Weather   Concord   Past weeks
Flag for USA

Past Weather in Concord, California, USA — Yesterday and Last 2 Weeks

Now
44 °F

Clear.


Feels Like: 43 °F
Forecast: 53 / 41 °F
Wind: 3 mph from Northeast

Location: Buchanan Field

Current Time: Jan 18, 2020 at 3:35:15 am

Latest Report: Jan 18, 2020 at 2:53 am


Visibility: 10 mi

Pressure: 30.30 "Hg

Humidity: 79%

Dew Point: 38 °F

Location of ConcordLocation

Past Weather in Concord — Graph

°F

Concord Temperature Yesterday

Maximum temperature yesterday: 48 °F (at 10:53 am)
Minimum temperature yesterday: 37 °F (at 7:53 am)
Average temperature yesterday: 44 °F

High & Low Weather Summary for the Past Weeks

 TemperatureHumidityPressure
High61 °F (Jan 5, 1:53 pm)97% (Jan 3, 9:21 am)30.55 "Hg (Jan 3, 9:21 am)
Low35 °F (Jan 7, 5:10 am)42% (Jan 6, 1:53 pm)29.68 "Hg (Jan 16, 8:53 am)
Average48 °F78%30.17 "Hg
* Reported Jan 3 1:53 am — Jan 18 1:53 am, Concord. Weather by CustomWeather, © 2020

Note: Actual official high and low records may vary slightly from our data, if they occured in-between our weather recording intervals... More about our weather records

Concord Weather History for the Previous 24 Hours

Scroll right to see more
 ConditionsComfort  
Time TempWeatherWind HumidityBarometerVisibility
1:53 am
Sat, Jan 18
43 °FClear.No wind86%30.29 "Hg10 mi
12:53 am42 °FClear.No wind85%30.30 "Hg8 mi
11:53 pm
Fri, Jan 17
45 °FClear.5 mph76%30.31 "Hg10 mi
10:53 pm44 °FClear.No wind82%30.30 "Hg10 mi
9:53 pm45 °FClear.No wind80%30.29 "Hg10 mi
8:53 pm46 °FClear.5 mph83%30.30 "Hg7 mi
7:53 pm46 °FClear.5 mph83%30.27 "Hg7 mi
6:53 pm46 °FPassing clouds.3 mph86%30.28 "Hg6 mi
5:53 pm46 °FFog.5 mph86%30.27 "Hg6 mi
5:33 pm46 °FPassing clouds.7 mph86%30.31 "Hg7 mi
4:53 pm45 °FFog.8 mph90%30.27 "Hg5 mi
3:53 pm47 °FFog.8 mph86%30.27 "Hg6 mi
2:53 pm47 °FSunny.6 mph83%30.26 "Hg7 mi
2:03 pm46 °FFog.9 mph86%30.31 "Hg5 mi
1:53 pm46 °FFog.9 mph86%30.27 "Hg6 mi
1:26 pm47 °FScattered clouds.9 mph83%30.32 "Hg7 mi
12:53 pm47 °FLow clouds.7 mph83%30.27 "Hg5 mi
12:01 pm45 °FFog.8 mph86%30.33 "Hg5 mi
11:38 am46 °FPartly sunny.8 mph86%30.35 "Hg7 mi
11:12 am47 °FScattered clouds.7 mph83%30.35 "Hg7 mi
10:53 am48 °FSunny.5 mph80%30.30 "Hg9 mi
9:53 am46 °FSunny.3 mph79%30.29 "Hg10 mi
8:53 am41 °FSunny.No wind89%30.28 "Hg10 mi
7:53 am37 °FSunny.3 mph93%30.27 "Hg10 mi
6:53 am38 °FClear.No wind90%30.25 "Hg10 mi
5:53 am42 °FMostly cloudy.6 mph85%30.22 "Hg10 mi
4:53 am40 °FClear.5 mph89%30.20 "Hg10 mi
3:53 am41 °FClear.5 mph86%30.16 "Hg10 mi
Weather by CustomWeather, © 2020

See weather overview

Advertising